Wind_Speed
6 5 5 5 5 4 3 3 5 5 5 6 6 7 7 8 8 8 10 10 10 10 10 10 10 10 10 10 10 10 10 9 9 9 9 8 8 8 8 8 8 9 9
5 5 5 4 5 5 4 5 5 5 6 6 6 7 8 8 9 9 10 11 11 11 11 11 12 11 11 11 11 11 11 11 11 10 10 10 10 10 10 9 9 9 10
5 5 5 5 4 5 5 6 6 6 6 6 7 7 8 8 9 10 11 11 12 12 12 12 11 12 11 11 12 12 12 12 13 12 12 11 11 11 12 11 11 11 11
6 6 6 6 5 5 6 6 6 6 6 7 8 8 9 9 9 10 11 12 12 13 13 13 13 13 13 13 13 13 13 13 13 14 13 13 12 13 13 13 13 13 13
7 7 6 6 6 6 6 6 7 7 7 8 9 9 10 10 10 11 11 12 13 13 14 14 14 14 14 14 14 13 14 14 14 14 14 14 14 14 13 13 14 14 14
8 7 7 7 7 7 7 7 7 7 8 8 8 9 10 10 10 11 12 12 12 12 13 13 14 14 15 15 14 14 15 16 17 16 15 15 15 15 15 15 15 15 15
8 8 8 8 8 7 7 8 8 9 8 9 9 9 9 9 10 11 12 12 13 13 13 14 14 15 15 15 15 16 16 17 17 18 17 17 17 16 16 16 16 16 17
8 9 9 9 10 9 8 8 9 9 10 10 10 11 10 11 10 11 11 12 13 13 13 14 15 15 15 15 15 16 16 16 16 17 17 18 18 18 17 17 16 16 16
8 9 10 10 10 10 9 10 10 10 10 11 11 11 11 11 12 12 12 12 13 14 14 15 15 16 16 16 16 17 17 17 17 17 18 18 19 20 20 19 19 19 18
9 10 10 10 10 10 10 11 11 11 11 12 12 12 12 12 12 12 12 12 13 14 15 15 15 16 17 17 17 18 18 18 18 18 19 19 19 19 20 20 20 20 19
11 11 12 11 11 11 11 12 12 13 13 13 13 13 13 13 13 13 14 14 15 15 16 16 17 16 17 18 18 18 19 19 19 19 19 19 20 20 21 21 21 22 21
13 13 13 13 13 13 13 13 14 14 15 15 15 15 15 14 14 15 15 15 16 17 17 17 18 18 18 19 19 19 19 20 20 20 20 20 20 21 21 21 22 22 22
15 15 15 15 15 15 15 15 15 15 16 16 16 16 16 16 16 17 17 17 18 18 19 19 19 19 20 20 20 20 20 21 21 21 21 21 21 21 21 21 22 22 22
16 17 17 17 17 17 17 17 16 17 17 17 17 17 17 18 18 18 19 19 19 20 20 21 22 22 22 22 22 21 22 22 21 21 21 22 22 22 22 23 22 22 22
18 18 18 19 19 19 19 19 19 19 19 20 19 19 20 19 19 20 20 21 21 22 22 23 23 23 23 23 23 23 22 22 22 23 23 24 24 24 24 24 24 24 24
19 19 20 20 21 21 21 21 20 20 21 22 22 21 21 21 21 21 22 22 22 23 23 23 24 24 25 24 24 24 24 24 24 24 25 25 26 26 26 26 26 26 26
21 21 21 22 22 22 22 22 22 22 23 23 23 24 23 23 23 24 24 24 24 24 24 24 25 25 25 25 26 26 27 26 27 27 27 27 28 28 28 28 28 28 28
22 22 22 23 22 22 22 22 23 23 24 24 25 24 24 25 26 26 26 26 26 27 27 27 26 26 26 27 27 28 28 28 29 29 28 29 29 29 29 29 29 29 30
22 22 23 23 23 24 23 23 24 24 25 25 25 25 25 25 26 27 27 27 27 28 28 29 29 29 29 29 29 29 30 30 30 30 30 29 29 29 30 31 30 30 30
23 23 23 24 24 24 24 25 25 25 25 25 26 26 26 27 27 27 27 28 27 28 28 29 29 30 30 31 31 31 31 31 31 31 31 31 30 30 30 31 31 31 31
24 24 24 25 25 25 25 25 25 25 25 26 26 26 27 27 27 27 27 27 28 29 29 29 29 30 30 31 31 32 32 32 32 32 32 32 32 31 32 32 32 32 32
26 26 26 26 26 25 25 25 24 24 25 26 27 27 27 28 28 28 28 29 29 29 30 29 29 30 31 32 32 32 32 32 32 33 33 32 32 32 32 32 33 33 33
27 27 27 26 25 25 25 25 25 26 27 27 27 27 28 28 28 28 28 28 29 30 30 30 30 30 31 31 31 32 32 33 32 32 33 32 32 33 33 32 33 33 32
28 27 26 26 26 26 26 26 26 27 27 27 27 26 26 26 26 27 27 27 27 27 29 30 30 30 30 31 31 31 31 32 31 31 32 32 32 32 32 33 33 33 33
28 27 27 26 26 26 25 26 26 26 26 26 26 25 26 26 26 26 26 26 26 27 27 28 28 28 28 28 29 31 32 31 31 31 31 31 32 32 32 33 33 32 32
28 27 27 26 26 27 27 27 27 26 26 26 27 27 26 26 27 27 27 27 26 26 27 27 27 28 28 29 30 30 30 31 31 30 30 30 30 31 31 31 31 31 32
Wind_Direction
27 19 9 6 359 353 350 318 294 299 295 282 276 270 267 264 264 259 253 252 254 252 252 252 247 246 247 252 249 247 247 250 253 251 253 254 255 256 256 255 256 253 250
17 11 1 352 347 341 337 327 313 301 297 289 284 279 271 262 261 262 257 252 253 255 257 256 252 250 250 252 250 250 251 251 252 255 256 257 255 258 257 259 259 257 254
9 6 359 347 335 330 329 323 318 307 300 295 287 282 270 267 267 265 262 257 253 254 255 256 257 253 252 253 250 253 256 254 251 254 255 256 255 257 257 257 256 258 256
3 356 349 345 335 329 327 326 319 312 301 295 287 280 277 272 270 269 265 260 255 253 254 255 255 254 253 254 256 256 257 256 253 252 254 256 255 256 256 254 254 255 255
2 352 342 340 334 328 323 320 315 308 302 297 287 282 282 278 272 271 269 264 258 257 255 256 256 256 258 261 262 262 259 259 254 251 254 256 255 255 257 254 253 254 255
357 350 343 341 336 326 318 312 310 307 303 298 289 287 287 278 270 267 265 262 257 258 259 261 259 258 261 263 264 265 265 266 263 257 256 257 255 253 256 256 255 255 257
348 344 336 333 339 338 331 318 308 303 301 299 293 290 285 280 275 268 264 261 257 257 260 261 260 261 263 264 266 264 264 267 266 260 259 257 255 254 255 256 255 255 256
340 337 336 330 330 324 321 321 318 308 303 300 299 291 285 279 279 273 268 267 263 262 262 259 258 258 261 263 265 263 264 263 266 261 258 257 256 253 253 253 253 254 253
325 323 323 324 325 320 315 315 316 309 308 307 301 294 292 288 284 278 275 272 266 264 262 262 261 260 262 263 261 261 261 261 263 263 257 258 260 260 258 256 254 253 254
315 314 317 317 317 315 312 311 312 310 306 304 302 297 294 289 285 284 281 279 273 270 268 266 268 268 267 267 265 263 263 264 264 264 259 258 259 260 261 261 259 256 256
308 309 309 311 309 307 307 305 305 306 305 302 301 296 292 286 284 281 278 277 274 272 270 268 267 268 269 269 271 270 267 267 266 265 262 260 259 258 259 260 260 261 259
305 304 302 302 302 303 304 304 302 302 301 299 297 293 289 282 283 280 275 274 275 274 272 272 269 268 269 270 271 271 272 271 271 269 266 265 263 262 261 260 260 261 261
307 304 300 301 300 301 301 301 300 300 300 298 297 293 291 286 284 281 277 275 273 273 274 273 271 270 270 270 269 269 271 271 271 271 269 267 266 264 264 262 261 262 262
307 306 304 302 301 300 300 300 298 295 296 296 294 292 289 288 284 282 280 277 274 272 270 271 271 271 271 271 270 270 270 271 270 269 268 266 265 264 264 264 263 264 265
306 305 305 304 302 299 298 297 296 294 294 293 291 290 288 285 284 281 280 277 276 273 270 269 270 270 271 271 271 271 270 271 270 269 268 266 265 265 264 263 263 264 264
306 305 303 302 301 300 297 296 294 293 292 293 292 290 287 286 284 282 280 279 278 276 273 270 268 269 270 269 269 268 269 270 270 270 268 267 266 265 266 265 264 264 264
303 304 303 302 301 300 298 297 295 294 293 292 292 291 287 286 286 282 281 280 278 276 275 273 271 270 270 268 268 269 268 269 269 269 270 269 267 265 266 266 265 264 264
305 304 303 302 301 301 299 298 297 297 294 292 293 291 288 287 288 286 283 282 280 277 276 274 272 268 268 268 269 269 268 269 270 270 270 269 268 267 266 265 266 265 265
305 305 304 300 299 300 300 300 299 299 297 294 294 294 292 290 290 288 284 281 279 278 276 275 273 271 269 269 269 269 268 269 270 271 272 271 270 268 267 266 265 266 266
303 303 302 302 299 299 299 299 299 298 297 295 294 294 293 291 289 288 285 283 280 279 277 275 273 271 270 270 270 269 269 270 271 272 272 272 272 270 267 267 266 267 267
299 299 300 300 298 296 297 297 296 296 296 294 293 293 293 292 290 288 287 284 281 279 278 276 274 273 272 271 271 271 270 270 271 271 271 272 272 272 270 270 269 269 268
297 296 296 295 296 296 297 297 296 297 297 296 295 294 294 293 291 289 286 284 282 281 279 278 276 274 272 271 272 272 271 271 272 271 271 272 273 273 272 271 271 270 270
295 293 293 294 295 296 297 296 296 296 297 297 297 297 296 295 293 291 289 287 285 282 281 279 277 275 273 272 272 272 271 271 271 272 272 272 273 273 273 272 272 271 271
295 295 295 295 295 296 297 297 297 296 296 298 299 299 299 299 297 295 292 291 290 287 283 281 279 277 275 274 272 272 272 273 272 273 272 272 272 273 273 273 272 271 270
295 295 295 295 296 296 296 298 299 299 299 299 299 300 300 300 298 297 296 294 292 289 286 284 282 279 278 277 275 273 274 273 273 273 273 272 272 272 272 272 272 270 269
293 293 293 293 295 296 297 298 298 298 299 298 298 299 299 300 299 297 296 295 293 291 289 286 285 283 280 278 277 275 275 275 274 275 274 274 273 272 271 270 269 270 270
Height
5886 5885 5884 5884 5884 5883 5883 5883 5882 5882 5882 5882 5882 5882 5882 5882 5882 5883 5884 5884 5885 5886 5886 5887 5887 5888 5888 5889 5889 5890 5891 5891 5892 5892 5893 5893 5894 5894 5895 5895 5895 5895 5895
5886 5885 5884 5884 5883 5883 5882 5882 5882 5881 5881 5880 5880 5880 5880 5880 5880 5881 5881 5882 5883 5884 5884 5885 5885 5885 5886 5886 5887 5888 5888 5889 5890 5890 5891 5891 5892 5892 5893 5893 5893 5893 5894
5886 5885 5884 5883 5883 5882 5881 5881 5880 5880 5879 5879 5878 5878 5878 5878 5878 5878 5879 5880 5880 5881 5882 5882 5882 5883 5883 5884 5884 5885 5886 5886 5886 5887 5888 5888 5889 5889 5890 5890 5891 5891 5891
5885 5884 5883 5883 5882 5881 5880 5880 5879 5878 5878 5877 5877 5876 5876 5876 5876 5876 5877 5877 5878 5878 5879 5879 5880 5880 5880 5881 5881 5882 5882 5883 5883 5884 5885 5885 5886 5886 5887 5887 5888 5888 5889
5885 5884 5883 5882 5881 5880 5879 5879 5878 5877 5877 5876 5875 5874 5874 5874 5873 5874 5874 5874 5875 5875 5876 5876 5877 5877 5877 5878 5878 5879 5879 5879 5880 5880 5881 5881 5882 5883 5883 5884 5884 5885 5885
5884 5883 5882 5880 5879 5879 5878 5877 5876 5876 5875 5874 5872 5871 5871 5871 5871 5871 5871 5871 5871 5872 5873 5873 5873 5874 5874 5875 5875 5876 5876 5876 5876 5876 5877 5878 5878 5879 5879 5880 5880 5881 5882
5884 5882 5881 5880 5878 5877 5876 5876 5875 5874 5872 5871 5870 5870 5869 5868 5868 5868 5868 5868 5868 5869 5869 5869 5870 5870 5871 5871 5871 5872 5872 5872 5872 5872 5873 5873 5874 5875 5875 5876 5876 5877 5878
5883 5881 5880 5878 5877 5876 5875 5874 5872 5871 5870 5869 5868 5867 5866 5866 5865 5865 5865 5865 5865 5865 5866 5866 5866 5866 5867 5867 5867 5868 5868 5868 5868 5868 5868 5869 5870 5870 5871 5871 5872 5872 5873
5881 5880 5878 5877 5876 5874 5873 5872 5870 5869 5868 5867 5865 5865 5864 5863 5862 5862 5861 5861 5862 5862 5862 5862 5863 5862 5862 5863 5863 5863 5863 5864 5864 5864 5864 5865 5865 5865 5866 5867 5867 5868 5869
5879 5878 5876 5875 5873 5872 5871 5870 5868 5866 5865 5864 5863 5862 5861 5860 5859 5859 5859 5858 5858 5859 5858 5859 5859 5859 5859 5858 5858 5859 5859 5859 5859 5859 5859 5860 5860 5861 5861 5862 5862 5863 5864
5876 5875 5873 5872 5871 5869 5868 5867 5865 5864 5862 5861 5860 5858 5857 5856 5856 5855 5855 5855 5855 5855 5855 5855 5855 5855 5854 5854 5854 5854 5854 5854 5854 5854 5854 5855 5855 5856 5856 5857 5857 5858 5859
5873 5872 5870 5869 5867 5866 5865 5863 5862 5860 5859 5858 5856 5855 5854 5853 5852 5852 5852 5851 5850 5850 5850 5850 5850 5850 5850 5849 5849 5849 5849 5849 5849 5849 5849 5850 5850 5850 5851 5851 5852 5852 5853
5870 5869 5867 5865 5864 5863 5861 5860 5858 5857 5855 5854 5852 5851 5850 5849 5848 5847 5847 5847 5846 5846 5845 5845 5844 5844 5844 5844 5844 5844 5844 5844 5844 5844 5844 5844 5844 5845 5845 5845 5846 5846 5847
5866 5865 5863 5862 5860 5858 5857 5855 5853 5852 5850 5849 5848 5846 5845 5844 5843 5842 5842 5841 5841 5841 5840 5839 5839 5838 5838 5838 5838 5838 5838 5838 5838 5838 5837 5838 5838 5838 5839 5839 5840 5840 5840
5862 5861 5859 5857 5855 5854 5852 5850 5849 5847 5845 5844 5842 5841 5840 5839 5838 5837 5836 5835 5835 5834 5834 5834 5833 5832 5831 5831 5831 5831 5832 5831 5832 5831 5831 5831 5832 5832 5832 5833 5833 5834 5834
5858 5856 5854 5852 5850 5849 5847 5845 5843 5842 5840 5839 5837 5835 5834 5833 5832 5831 5830 5829 5828 5827 5827 5827 5826 5825 5824 5824 5824 5824 5825 5825 5825 5825 5825 5824 5824 5825 5825 5826 5826 5827 5827
5853 5851 5849 5847 5845 5843 5841 5840 5838 5836 5834 5833 5831 5829 5828 5827 5825 5824 5823 5822 5820 5820 5819 5819 5819 5818 5817 5817 5817 5817 5817 5817 5817 5817 5817 5817 5817 5817 5818 5818 5818 5819 5820
5848 5845 5843 5841 5840 5838 5836 5834 5832 5830 5828 5826 5824 5822 5821 5819 5818 5817 5815 5814 5813 5812 5811 5811 5811 5810 5809 5809 5809 5809 5809 5809 5809 5809 5809 5809 5809 5809 5809 5810 5810 5811 5811
5842 5840 5838 5835 5834 5832 5830 5827 5826 5823 5821 5819 5817 5815 5813 5812 5810 5809 5807 5806 5804 5803 5802 5802 5802 5801 5801 5801 5800 5800 5800 5800 5800 5800 5800 5800 5800 5800 5801 5801 5802 5802 5803
5836 5834 5832 5829 5827 5825 5823 5821 5819 5817 5814 5812 5810 5808 5806 5804 5802 5800 5799 5797 5796 5794 5793 5793 5792 5792 5792 5791 5792 5791 5791 5791 5791 5791 5791 5791 5791 5791 5791 5792 5792 5793 5793
5830 5828 5826 5823 5821 5819 5817 5814 5812 5810 5807 5805 5803 5800 5798 5796 5794 5792 5790 5788 5787 5786 5784 5783 5783 5782 5782 5782 5782 5782 5782 5782 5782 5782 5782 5782 5782 5782 5782 5782 5783 5783 5783
5823 5821 5819 5817 5815 5812 5810 5807 5805 5802 5800 5797 5795 5792 5790 5788 5785 5783 5781 5779 5778 5776 5775 5774 5773 5773 5773 5772 5772 5772 5772 5772 5773 5773 5772 5772 5772 5772 5772 5773 5773 5773 5773
5817 5814 5812 5810 5808 5805 5803 5800 5798 5795 5793 5790 5787 5784 5781 5779 5776 5774 5772 5770 5768 5766 5766 5765 5764 5763 5763 5763 5763 5762 5762 5762 5762 5762 5762 5763 5763 5762 5762 5762 5762 5763 5763
5809 5807 5804 5802 5800 5798 5796 5793 5790 5787 5785 5782 5779 5776 5773 5771 5768 5766 5763 5761 5759 5757 5756 5754 5754 5754 5753 5753 5752 5752 5752 5752 5752 5752 5751 5752 5752 5752 5752 5752 5752 5752 5752
5802 5799 5797 5795 5793 5790 5788 5786 5783 5780 5777 5774 5771 5769 5766 5763 5760 5758 5755 5753 5751 5748 5747 5745 5744 5743 5743 5742 5742 5742 5742 5742 5742 5742 5741 5741 5742 5742 5743 5742 5742 5742 5742
5794 5792 5789 5787 5785 5783 5780 5778 5775 5772 5769 5767 5764 5762 5759 5756 5753 5750 5747 5745 5742 5740 5738 5737 5735 5735 5734 5733 5733 5732 5732 5732 5732 5733 5732 5732 5732 5732 5732 5733 5732 5732 5732